Location: PSU-Greenbush Astrophysical Observatory
(37.5140°N, 94.9880°W)
Time: 01:25:58
(UTC-06:00)

Transit 2A - Pass Details

Date: 26 January 2020
Orbit: 600 x 959 km, 66.7° (Epoch: 21 February)

Event Time Altitude Azimuth Distance (km) Brightness Sun altitude
Rises 06:43:10 0° 305° (NW) 3,099 - -9.2°
Exits shadow 06:47:01 10° 274° (W) 2,288 7.8 -8.5°
Reaches altitude 10° 06:47:13 10° 272° (W) 2,267 7.8 -8.5°
Maximum altitude 06:48:46 11° 255° (WSW) 2,211 7.9 -8.2°
Drops below altitude 10° 06:50:22 10° 237° (WSW) 2,336 8.1 -7.9°
Sets 06:54:47 0° 205° (SSW) 3,363 9.3 -7.0°
